TimeCDT,TemperatureF,Dew PointF,Humidity,Sea Level PressureIn,VisibilityMPH,Wind Direction,Wind SpeedMPH,Gust SpeedMPH,PrecipitationIn,Events,Conditions,WindDirDegrees,DateUTC
12:53 AM,71.1,61.0,70,29.91,10.0,South,12.7,-,N/A,,Clear,180,2012-10-14 05:53:00
1:53 AM,73.0,62.1,68,29.91,10.0,South,17.3,23.0,N/A,,Clear,180,2012-10-14 06:53:00
2:53 AM,73.0,63.0,71,29.91,10.0,South,13.8,27.6,0.00,Rain,Light Rain,190,2012-10-14 07:53:00
3:53 AM,69.1,64.9,87,29.93,10.0,South,11.5,-,0.06,Rain,Light Rain,190,2012-10-14 08:53:00
4:53 AM,70.0,66.0,87,29.90,10.0,South,12.7,21.9,0.03,,Overcast,190,2012-10-14 09:53:00
5:03 AM,66.2,64.4,94,29.94,2.5,West,10.4,27.6,0.00,Rain,Heavy Rain,270,2012-10-14 10:03:00
5:10 AM,66.2,62.6,88,29.93,4.0,WSW,10.4,19.6,0.01,Rain,Light Rain,250,2012-10-14 10:10:00
5:32 AM,64.4,60.8,88,29.92,10.0,South,15.0,23.0,0.03,Rain,Light Rain,190,2012-10-14 10:32:00
5:53 AM,64.0,61.0,90,29.91,10.0,South,13.8,23.0,0.04,Rain,Light Rain,180,2012-10-14 10:53:00
6:53 AM,64.0,60.1,87,29.92,10.0,South,9.2,-,0.02,Rain,Light Rain,180,2012-10-14 11:53:00
7:53 AM,64.0,61.0,90,29.88,10.0,South,21.9,29.9,0.03,Rain,Light Rain,170,2012-10-14 12:53:00
8:53 AM,64.9,61.0,87,29.86,10.0,SSW,21.9,34.5,0.02,Rain,Light Rain,210,2012-10-14 13:53:00
9:08 AM,64.4,60.8,88,29.89,10.0,SSW,16.1,29.9,0.00,,Partly Cloudy,210,2012-10-14 14:08:00
9:53 AM,66.0,62.1,87,29.91,10.0,SSW,17.3,24.2,0.02,,Clear,210,2012-10-14 14:53:00
10:53 AM,68.0,62.1,81,29.91,10.0,SSW,21.9,33.4,0.01,,Clear,210,2012-10-14 15:53:00
11:53 AM,71.1,62.1,73,29.90,10.0,SW,20.7,35.7,0.01,,Mostly Cloudy,220,2012-10-14 16:53:00
12:42 PM,71.6,62.6,73,29.90,10.0,SW,17.3,26.5,0.01,,Overcast,220,2012-10-14 17:42:00
12:53 PM,72.0,63.0,73,29.89,10.0,SW,17.3,27.6,0.01,,Overcast,220,2012-10-14 17:53:00
1:46 PM,73.4,62.6,69,29.87,10.0,WSW,19.6,32.2,N/A,,Mostly Cloudy,240,2012-10-14 18:46:00
1:53 PM,73.0,61.0,66,29.87,10.0,WSW,20.7,33.4,N/A,,Mostly Cloudy,240,2012-10-14 18:53:00
3:53 PM,75.9,59.0,56,29.86,10.0,WSW,20.7,25.3,N/A,,Scattered Clouds,250,2012-10-14 20:53:00
4:53 PM,75.9,57.9,54,29.87,10.0,WSW,12.7,24.2,N/A,,Mostly Cloudy,240,2012-10-14 21:53:00
5:53 PM,73.0,57.0,57,29.90,10.0,WNW,9.2,17.3,N/A,,Overcast,290,2012-10-14 22:53:00
6:53 PM,66.9,55.9,68,29.92,10.0,West,3.5,-,N/A,,Clear,270,2012-10-14 23:53:00
7:53 PM,64.9,55.0,70,29.94,10.0,West,5.8,-,N/A,,Clear,280,2012-10-15 00:53:00
8:53 PM,62.1,54.0,75,29.95,10.0,WNW,6.9,-,N/A,,Clear,290,2012-10-15 01:53:00
9:53 PM,64.0,54.0,70,29.97,10.0,West,4.6,-,N/A,,Clear,270,2012-10-15 02:53:00
10:53 PM,61.0,54.0,78,29.98,10.0,WNW,6.9,-,0.01,,Clear,290,2012-10-15 03:53:00
11:53 PM,59.0,53.1,81,29.97,10.0,WNW,8.1,-,N/A,,Clear,300,2012-10-15 04:53:00